Location: Unspecified
(0.0000°N, 0.0000°E)
Time: 11:17:30
(UTC+00:00)

S-56A Canister/Altair - Pass Details

Date: 28 November 2019
Orbit: 632 x 2500 km, 38.9° (Epoch: 13 December)

Event Time Altitude Azimuth Distance (km) Brightness Sun altitude
Rises 12:09:34 0° 250° (WSW) 5,935 12.2 68.0°
Reaches altitude 10° 12:13:43 10° 257° (WSW) 5,055 12.0 67.8°
Maximum altitude 12:27:03 39° 319° (NW) 3,330 11.2 66.6°
Drops below altitude 10° 12:39:34 10° 23° (NNE) 4,705 11.4 65.2°
Sets 12:43:21 0° 32° (NNE) 5,495 11.6 64.8°
